Find Starlink 5923

NORAD ID: 56489 Int'l Des: 2023-064 Owner: SPXS Country: US Constellation: starlink operational
LEOCIRCULAR

Current View

Loading 3D Globe...

About Starlink 5923

Description loading...

Upcoming Passes

Passes for default location (London). Set your location on the main map for personalized predictions.

Altitude History

Loading altitude history...

Two-Line Element Set

1 56489U 23064AT 26149.68118308 .00000274 00000-0 30769-4 0 9996
2 56489 69.9990 260.2673 0003388 270.2063 89.8708 14.98327327168364
Epoch: May 29, 2026 • Age: 23 hours

Current Status

Altitude 579.2 km
Velocity 7.57 km/s
Sub-Earth Point 41.81°N, 59.9°W
Launch Date May 10, 2023
Age 3 years
Type internet

Technical Details

Classification Payload
Mass 305.00 kg
Dry Mass 290.00 kg
Total Mass 305.00 kg
Length 0.20 m
Diameter 2.80 m
Span 9.00 m
Shape Box + pan
Manufacturer SPXS
Bus Type Starlink
Phase Status In Orbit
Owner/State SPXS/US

Most Searched